Location: Emory University Observatory
(33.7903°N, 84.3267°W)
Time: 01:36:48
(UTC-05:00)

OTV 5 (USA 277) - Pass Details

Date: 11 October 2017
Orbit: 404 x 417 km, 43.0° (Epoch: 07 September)

Event Time Altitude Azimuth Distance (km) Brightness Sun altitude
Rises 20:26:39 0° 268° (W) 2,348 ? -17.1°
Reaches altitude 10° 20:28:56 10° 280° (W) 1,487 ? -17.6°
Maximum altitude 20:31:54 28° 342° (NNW) 812 ? -18.2°
Enters shadow 20:33:03 23° 17° (NNE) 946 ? -18.5°
